Terminal Aerodrome Forecast
Issued by NWS Quad Cities IA IL

Home | Current Version | Previous Version | Text Only | Print | Product List | Glossary On
Versions: 1 2 3 4 5 6 7 8 9 10 11 12 13 14 15 16 17 18 19 20 21 22 23 24 25 26 27
000
FTUS43 KDVN 222300
TAFMLI
TAF
KMLI 222332Z 2300/2324 VRB03KT P6SM SCT060
     FM230600 VRB02KT 6SM BR VCTS BKN060CB
     FM230900 VRB03KT 3SM -SHRA BR VCTS BKN040CB
     FM231500 13005KT P6SM BKN050=

USA.gov is the U.S. government's official web portal to all federal, state and local government web resources and services.